[[{"header":{"parameterUnit":"m.s-1","parameterCategory":1,"la1":30.2991,"la2":30.254,"lo1":-89.0895,"lo2":-89.0444,"dy":0.0017,"dx":0.0017,"nx":28,"ny":28,"refTime":"2026-01-03T09:00:00:Z","depth":0,"parameterNumber":2,"parameterNumberName":"U-component_of_WINDS"},"data":[0,0,0,0,0,0,0,0,0,0,0,0,0,0,0,0,0,0,0,0,0,0,0,0,0,0,0,0,0,0,0,0,0,0,0,0,0,0,0,0,0,0,0,0,0,0,0,0,0,0,0,0,0,0,0,0,0,0,1.9319,1.932,0,1.9356,1.9357,1.9357,1.9336,1.9335,1.9334,1.9333,1.9373,1.9375,1.9377,0,0,0,0,0,0,0,0,0,0,0,0,0,1.9234,1.9236,1.9319,1.932,1.932,1.9356,1.9357,1.9357,1.9336,1.9335,1.9334,1.9332,1.9372,1.9375,1.9377,0,0,0,0,0,0,0,0,0,0,0,0,0,1.9271,1.9236,1.9319,1.9314,1.9314,1.9356,1.9357,1.9358,1.9336,1.9335,1.9333,1.9332,1.9372,1.9374,1.9378,1.9428,0,0,1.9387,1.9388,0,0,0,0,0,0,0,0,1.9269,1.9274,1.9314,1.9314,1.9314,1.934,1.9342,1.9381,1.9337,1.9328,1.9333,1.9331,1.9363,1.9367,1.9377,1.943,1.9432,1.9387,1.9389,1.939,1.9391,0,0,0,0,0,0,0,1.9267,1.9273,1.9334,1.9315,1.9315,1.9311,1.9315,1.9349,1.9354,1.9328,1.9327,1.9332,1.9363,1.9375,1.9378,1.9432,1.9387,1.939,1.9392,1.9393,1.9532,1.9534,0,0,0,0,0,0,1.9264,1.9271,1.9333,1.9335,1.9287,1.9314,1.9318,1.9333,1.9354,1.9355,1.9333,1.933,1.937,1.9375,1.938,1.9443,1.939,1.9393,1.9395,1.953,1.9533,1.9535,0,0,0,0,0,0,1.9262,1.927,1.9331,1.9303,1.931,1.9317,1.9335,1.9335,1.9346,1.9357,1.9358,1.9343,1.9369,1.9375,1.9417,1.9444,1.9395,1.9397,1.9528,1.9531,1.9534,1.9568,0,0,0,0,0,0,1.926,1.9269,1.9287,1.9303,1.9312,1.9367,1.9336,1.9337,1.9351,1.9349,1.9367,1.9369,1.9368,1.9412,1.942,1.9447,1.94,1.9526,1.9529,1.9533,1.9564,1.9572,1.9578,0,0,0,0,0,1.9257,1.9295,1.9288,1.9296,1.9334,1.9368,1.9373,1.9371,1.9353,1.9373,1.938,1.9368,1.9439,1.9417,1.9425,1.9454,1.9524,1.9528,1.9532,1.9562,1.957,1.9577,0,0,0,0,0,0,1.9282,1.9297,1.9289,1.9333,1.935,1.9364,1.9388,1.938,1.9402,1.9399,1.9396,1.9401,1.9445,1.9453,1.9428,1.9506,1.9479,1.9485,1.9499,1.9507,1.9513,1.9511,1.9402,0,0,0,0,0,1.9292,1.9318,1.933,1.9368,1.9376,1.9381,1.9396,1.9393,1.941,1.9417,1.9427,1.9445,1.9472,1.949,1.9515,1.9565,1.9571,1.959,1.9596,1.9601,1.9607,1.9638,1.9648,1.9548,1.9548,1.9548,0,0,1.9314,1.9326,1.9342,1.9373,1.9385,1.9414,1.9387,1.9417,1.9438,1.9422,1.9462,1.9471,1.9491,1.9538,1.956,1.9547,1.9636,1.9607,1.9611,1.9614,1.9644,1.9653,1.9661,1.9551,1.9551,1.955,0,0,1.9369,1.9379,1.9414,1.9427,1.9446,1.945,1.9458,1.9475,1.948,1.9521,1.951,1.9536,1.9581,1.9597,1.9611,1.9676,1.9667,1.9685,1.972,1.975,1.9758,1.9765,1.9791,1.98,1.969,1.969,1.969,0,1.9395,1.9435,1.9432,1.9464,1.948,1.9467,1.9503,1.9516,1.9543,1.9555,1.954,1.9599,1.9611,1.9664,1.968,1.9691,1.9702,1.9683,1.9757,1.9764,1.977,1.9795,1.9805,1.9692,1.9692,1.9692,1.9692,0,1.9467,1.9496,1.9522,1.9549,1.9567,1.96,1.9605,1.9624,1.962,1.9626,1.967,1.9685,1.9714,1.9726,1.9722,1.9779,1.9771,1.9756,1.973,1.9782,1.9806,1.9815,1.9695,1.9695,1.9694,1.9693,0,0,1.9537,1.9564,1.9574,1.9588,1.961,1.9633,1.9667,1.9696,1.9714,1.9734,1.9764,1.9805,1.9792,1.9808,1.9807,1.9833,1.9888,1.9816,1.9817,1.9831,1.9956,1.9968,1.9979,1.9882,1.9884,1.9885,1.9955,0,1.9596,1.9656,1.9656,1.9712,1.974,1.973,1.9761,1.9779,1.9786,1.9812,1.982,1.985,1.983,1.984,1.9866,1.9876,1.9913,1.9871,1.9913,1.9914,1.991,1.9991,2.0003,2.0068,1.9964,1.9965,1.9966,0,1.9671,1.9695,1.9754,1.9775,1.9787,1.9814,1.9843,1.9867,1.9889,1.9893,1.9912,1.9908,1.9946,1.9918,1.9972,1.9943,1.996,1.9968,1.9971,1.9976,1.9945,2.0,2.0088,2.0099,1.998,1.9979,1.9978,0,1.972,1.9766,1.9809,1.982,1.9845,1.9865,1.9877,1.9896,1.9915,1.994,1.9953,1.9982,1.9999,2.0022,2.0027,2.0006,2.0083,2.0054,2.0089,2.0089,2.0106,2.0105,2.0201,2.0114,2.0114,2.0114,2.0114,0,1.9786,1.9824,1.9831,1.9857,1.99,1.9901,1.9943,1.9953,1.9972,2.0002,1.9994,2.0022,2.0026,2.0056,2.0059,2.0106,2.0112,2.0118,2.0119,2.012,2.012,2.0133,2.0129,2.0116,2.0116,2.0115,2.0115,0,1.9848,1.9854,1.99,1.9921,1.9927,1.9958,1.9977,2.0003,2.001,2.0048,2.0057,2.0069,2.0104,2.0111,2.0152,2.0155,2.0211,2.0206,2.0204,2.0204,2.024,2.0237,2.0348,2.0364,2.0265,2.0266,2.0267,0,1.989,1.9919,1.9944,1.9963,1.9976,2.0007,2.0026,2.0029,2.005,2.0079,2.0103,2.0137,2.0165,2.0222,2.0235,2.0268,2.0266,2.0302,2.027,2.0272,2.027,2.0269,2.0273,2.0309,2.031,2.0311,2.0311,0,1.9966,1.9969,1.9997,2.0027,2.0051,2.0075,2.0098,2.0114,2.012,2.0145,2.0181,2.0203,2.0246,2.0282,2.0315,2.0329,2.0323,2.0321,2.0332,2.0334,2.0333,2.0337,2.0223,2.0319,2.0318,2.0318,2.0317,2.0317,2.0021,2.0048,2.007,2.0103,2.0121,2.0143,2.017,2.0182,2.0212,2.0247,2.0247,2.0288,2.0312,2.0356,2.0372,2.0406,2.0394,2.0408,2.0412,2.0416,2.0421,2.0326,2.0411,2.0411,2.0411,2.0411,2.0411,0,2.0099,2.0114,2.0144,2.0177,2.0204,2.0195,2.0221,2.0244,2.028,2.0302,2.0331,2.0374,2.041,2.0427,2.0462,2.0486,2.0484,2.0495,2.0495,2.0499,2.0428,2.0417,2.0497,2.0496,2.0496,2.0496,2.0496,2.0496,2.0143,2.0188,2.0194,2.025,2.0265,2.0304,2.032,2.0342,2.0361,2.041,2.0439,2.045,2.0472,2.051,2.0543,2.0547,2.0562,2.0575,2.0578,2.0512,2.0503,2.0495,2.0485,2.0578,2.0578,2.0647,2.0648,2.0648]},{"header":{"parameterUnit":"m.s-1","parameterCategory":1,"la1":30.2991,"la2":30.254,"lo1":-89.0895,"lo2":-89.0444,"dy":0.0017,"dx":0.0017,"nx":28,"ny":28,"refTime":"2026-01-03T09:00:00:Z","depth":0,"parameterNumber":3,"parameterNumberName":"V-component_of_WINDS"},"data":[0,0,0,0,0,0,0,0,0,0,0,0,0,0,0,0,0,0,0,0,0,0,0,0,0,0,0,0,0,0,0,0,0,0,0,0,0,0,0,0,0,0,0,0,0,0,0,0,0,0,0,0,0,0,0,0,0,0,2.6559,2.6558,0,2.6525,2.6525,2.6524,2.6472,2.6472,2.6471,2.647,2.6433,2.6433,2.6433,0,0,0,0,0,0,0,0,0,0,0,0,0,2.6578,2.6578,2.6559,2.6558,2.6558,2.6525,2.6525,2.6524,2.6473,2.6471,2.647,2.6469,2.6434,2.6433,2.6433,0,0,0,0,0,0,0,0,0,0,0,0,0,2.656,2.6578,2.6559,2.6528,2.6525,2.6525,2.6525,2.6524,2.6473,2.6471,2.647,2.6469,2.6434,2.6433,2.6433,2.646,0,0,2.6433,2.6433,0,0,0,0,0,0,0,0,2.6561,2.6559,2.6533,2.653,2.6527,2.6502,2.6518,2.6502,2.6473,2.6493,2.647,2.6468,2.6457,2.6455,2.6452,2.6458,2.6456,2.6433,2.6433,2.6433,2.6433,0,0,0,0,0,0,0,2.6562,2.656,2.6545,2.6533,2.6529,2.6516,2.6512,2.6515,2.6483,2.6491,2.6487,2.6484,2.6455,2.6452,2.645,2.6456,2.6433,2.6433,2.6432,2.6432,2.6485,2.6487,0,0,0,0,0,0,2.6568,2.6561,2.6546,2.6544,2.6541,2.6517,2.6512,2.6511,2.6483,2.6477,2.6485,2.6482,2.6453,2.6451,2.6449,2.648,2.6433,2.6432,2.6432,2.6484,2.6486,2.6487,0,0,0,0,0,0,2.6569,2.6567,2.6548,2.6552,2.6548,2.6518,2.6517,2.6511,2.6508,2.6478,2.6472,2.6488,2.6452,2.6449,2.6458,2.6478,2.6432,2.6432,2.6482,2.6484,2.6486,2.6541,0,0,0,0,0,0,2.6569,2.6568,2.6577,2.6552,2.6548,2.6558,2.6518,2.6511,2.6508,2.6503,2.6479,2.6474,2.645,2.6459,2.6458,2.6477,2.6432,2.648,2.6483,2.6486,2.6538,2.6545,2.6552,0,0,0,0,0,2.657,2.6593,2.6578,2.6576,2.656,2.6559,2.6556,2.6529,2.651,2.6519,2.6501,2.6475,2.6476,2.646,2.6459,2.6478,2.6479,2.6482,2.6485,2.6535,2.6544,2.6552,0,0,0,0,0,0,2.662,2.6589,2.6572,2.6588,2.6577,2.655,2.6561,2.654,2.6533,2.6529,2.6495,2.649,2.6504,2.6491,2.6475,2.6503,2.6473,2.6477,2.6511,2.652,2.6527,2.653,2.6432,0,0,0,0,0,2.6633,2.6635,2.6608,2.6624,2.6619,2.6592,2.659,2.6571,2.6557,2.6552,2.6534,2.6522,2.652,2.6519,2.6515,2.6536,2.6531,2.6548,2.6555,2.6561,2.6565,2.6577,2.6585,2.6498,2.6498,2.6498,0,0,2.6659,2.6642,2.6645,2.6634,2.6623,2.6626,2.6588,2.6592,2.6595,2.6552,2.6561,2.6547,2.6531,2.6547,2.6553,2.6537,2.6588,2.6565,2.657,2.6571,2.6581,2.659,2.6597,2.6501,2.65,2.65,0,0,2.6709,2.6696,2.6709,2.67,2.6684,2.6666,2.667,2.6647,2.6637,2.6645,2.6614,2.6616,2.6612,2.6603,2.6598,2.6648,2.6624,2.6647,2.6684,2.6697,2.6704,2.671,2.6729,2.6736,2.6651,2.6651,2.6651,0,2.6743,2.6747,2.6719,2.6726,2.6723,2.6686,2.67,2.6692,2.6675,2.6674,2.6656,2.6653,2.6639,2.6654,2.6666,2.6663,2.6667,2.665,2.6705,2.6711,2.6716,2.6734,2.6741,2.6654,2.6654,2.6653,2.6653,0,2.6791,2.6795,2.6807,2.6795,2.6792,2.6803,2.6777,2.6778,2.6759,2.6743,2.6752,2.6735,2.6729,2.673,2.6711,2.6743,2.6734,2.6711,2.668,2.6728,2.6744,2.6751,2.6658,2.6657,2.6656,2.6655,0,0,2.687,2.6844,2.6849,2.6844,2.6825,2.6827,2.6837,2.6831,2.6834,2.6824,2.6832,2.6831,2.6811,2.6805,2.6785,2.6796,2.6839,2.6772,2.6771,2.6787,2.6875,2.6894,2.6902,2.6823,2.6824,2.6825,2.6877,0,2.6917,2.6933,2.6909,2.693,2.6934,2.69,2.6909,2.6899,2.6885,2.6886,2.6869,2.687,2.6843,2.6839,2.6849,2.6832,2.6857,2.6827,2.6831,2.6832,2.6838,2.691,2.6929,2.6979,2.6883,2.6884,2.6885,0,2.6974,2.697,2.6992,2.6974,2.6975,2.6983,2.6978,2.6979,2.6968,2.6956,2.6952,2.6928,2.6937,2.6907,2.692,2.6901,2.6901,2.6893,2.6895,2.6895,2.6862,2.6914,2.6994,2.7002,2.6895,2.6894,2.6893,0,2.7032,2.7031,2.7045,2.7041,2.7021,2.7028,2.7019,2.7006,2.7006,2.7001,2.7,2.6996,2.6994,2.6991,2.6968,2.6948,2.6984,2.6952,2.6976,2.6977,2.6986,2.6986,2.7068,2.6984,2.6984,2.6983,2.6983,0,2.7088,2.7103,2.7071,2.708,2.7096,2.7069,2.7086,2.7074,2.7064,2.707,2.704,2.7046,2.7014,2.7018,2.6999,2.7014,2.7012,2.7004,2.7,2.7008,2.7009,2.7008,2.7005,2.6985,2.6985,2.6985,2.6984,0,2.7155,2.7134,2.7147,2.7128,2.7123,2.7137,2.712,2.7128,2.7112,2.7121,2.7121,2.7097,2.7099,2.7076,2.7073,2.7061,2.7084,2.7072,2.7089,2.7086,2.7112,2.7111,2.7198,2.7209,2.7116,2.7117,2.7118,0,2.7193,2.7204,2.7187,2.7189,2.7183,2.7187,2.7187,2.7161,2.7162,2.7151,2.716,2.7161,2.716,2.7165,2.7148,2.7146,2.7135,2.7166,2.7135,2.7144,2.7138,2.7138,2.714,2.7173,2.7174,2.7175,2.7176,0,2.7262,2.7252,2.7253,2.7252,2.7253,2.725,2.7245,2.7249,2.7221,2.7223,2.7226,2.7226,2.7225,2.7226,2.7222,2.7213,2.7191,2.7186,2.7192,2.7201,2.7211,2.7208,2.7109,2.7184,2.7183,2.7182,2.7182,2.7182,2.7317,2.7326,2.7317,2.732,2.7314,2.7311,2.7318,2.7304,2.7307,2.7305,2.7289,2.7296,2.7286,2.7278,2.7271,2.7277,2.7262,2.727,2.7272,2.7275,2.7281,2.7209,2.7275,2.7275,2.7275,2.7275,2.7274,0,2.7386,2.7379,2.7382,2.7378,2.7381,2.736,2.7354,2.7358,2.7365,2.7358,2.7358,2.7363,2.7365,2.7348,2.7348,2.7356,2.7346,2.7357,2.7356,2.7355,2.7293,2.7289,2.7365,2.7365,2.7365,2.7365,2.7365,2.7365,2.7423,2.7439,2.7429,2.7442,2.7434,2.7442,2.7441,2.7438,2.7433,2.744,2.7442,2.7432,2.7421,2.7421,2.7422,2.7417,2.7419,2.7434,2.7426,2.7368,2.7359,2.7351,2.7347,2.7435,2.7435,2.7488,2.7489,2.7489]}]]